Tracking 20083 objects as of 9-Dec-2019
HD Live streaming from Space Station
objects crossing your sky now

COSMOS 1275 DEB

Track COSMOS 1275 DEB now!
10-day predictions


NORAD ID: 42189
Int'l Code: 1981-053TD
Perigee: 924.9 km
Apogee: 1,106.7 km
Inclination: 83.0 °
Period: 105.3 minutes
Semi major axis: 7386 km
RCS: Unknown
Launch date: June 4, 1981
Source: Commonwealth of Independent States (former USSR) (CIS)
Launch site: PLESETSK MISSILE AND SPACE COMPLEX (PKMTR)

Note: This is SATELLITE DEBRIS
aabbcc
Your satellite tracking list
Your tracking list is empty




NASA's NSSDC Master Catalog

Two Line Element Set (TLE):
1 42189U 81053TD  19342.10097774  .00000352  00000-0  37928-3 0  9997
2 42189  83.0222 221.9792 0123066 160.4497 200.1436 13.67461827848577
Source of the keplerian elements: AFSPC